G1 CYXU-CYXU

Flight info

Callsign G1
Flight time N/A
Altitude 1900
Route CIRCUITS
Aircraft F16

Departure

Time 2026-04-25 22:22
Airport London International Airport (CYXU)

Arrival

Time N/A
Airport London International Airport (CYXU)
Time Latitude Longitude Altitude Speed Heading
2026-04-25 22:12 43.02963 -81.14937 899 ft 0 kts 219°
2026-04-25 22:13 43.02960 -81.14934 899 ft 1 kts 109°
2026-04-25 22:13 43.02964 -81.14931 899 ft 0 kts 39°
2026-04-25 22:14 43.03045 -81.14910 899 ft 18 kts 343°
2026-04-25 22:14 43.03140 -81.15015 900 ft 18 kts 315°
2026-04-25 22:15 43.03229 -81.15124 902 ft 16 kts 319°
2026-04-25 22:15 43.03313 -81.15122 904 ft 13 kts 43°
2026-04-25 22:15 43.03374 -81.15045 907 ft 11 kts 44°
2026-04-25 22:16 43.03604 -81.14735 909 ft 0 kts 47°
2026-04-25 22:16 43.03604 -81.14734 908 ft 1 kts 45°
2026-04-25 22:16 43.03676 -81.14638 907 ft 19 kts 45°
2026-04-25 22:16 43.03774 -81.14506 905 ft 22 kts 44°
2026-04-25 22:17 43.03850 -81.14414 903 ft 8 kts 28°
2026-04-25 22:17 43.03970 -81.14455 901 ft 25 kts 340°
2026-04-25 22:17 43.04051 -81.14589 902 ft 31 kts 259°
2026-04-25 22:17 43.03878 -81.15873 950 ft 215 kts 259°
2026-04-25 22:18 43.03417 -81.17802 1134 ft 216 kts 232°
2026-04-25 22:18 43.02180 -81.18906 1150 ft 223 kts 189°
2026-04-25 22:18 43.00710 -81.18425 1176 ft 221 kts 147°
2026-04-25 22:18 42.99551 -81.17038 1325 ft 224 kts 137°
2026-04-25 22:19 42.98402 -81.15575 1464 ft 227 kts 135°
2026-04-25 22:19 42.97705 -81.13661 1429 ft 233 kts 92°
2026-04-25 22:19 42.98098 -81.11542 1456 ft 232 kts 61°
2026-04-25 22:19 42.99259 -81.10368 1391 ft 201 kts 14°
2026-04-25 22:20 43.00316 -81.10712 907 ft 142 kts 327°
2026-04-25 22:20 43.00794 -81.11081 987 ft 157 kts 335°
2026-04-25 22:20 43.01634 -81.12385 1255 ft 184 kts 299°
2026-04-25 22:20 43.02357 -81.13708 932 ft 169 kts 318°
2026-04-25 22:21 43.03187 -81.14739 945 ft 190 kts 318°
2026-04-25 22:21 43.04244 -81.15957 1115 ft 204 kts 331°
2026-04-25 22:21 43.05519 -81.15317 1399 ft 240 kts 83°
2026-04-25 22:21 43.04819 -81.13528 1493 ft 225 kts 141°
2026-04-25 22:22 43.03641 -81.12203 1615 ft 215 kts 139°
2026-04-25 22:22 43.02443 -81.10810 1787 ft 278 kts 140°
2026-04-25 22:22 43.00823 -81.09951 1920 ft 251 kts 225°
2026-04-25 22:22 43.00940 -81.12110 1484 ft 238 kts 320°
2026-04-25 22:23 43.02114 -81.13478 998 ft 203 kts 319°
2026-04-25 22:23 43.03065 -81.14620 956 ft 203 kts 317°
2026-04-25 22:23 43.04356 -81.16195 1274 ft 262 kts 318°
2026-04-25 22:23 43.06211 -81.18488 1476 ft 478 kts 317°
2026-04-25 22:24 43.09282 -81.22310 1648 ft 692 kts 317°
2026-04-25 22:24 43.12963 -81.26899 1853 ft 673 kts 317°
2026-04-25 22:24 43.16104 -81.30820 1914 ft 580 kts 317°
2026-04-25 22:24 43.18966 -81.34398 1904 ft 537 kts 317°
2026-04-25 22:25 43.21641 -81.37733 1842 ft 505 kts 317°
2026-04-25 22:25 43.24455 -81.41246 1776 ft 643 kts 317°
2026-04-25 22:25 43.27091 -81.44570 10735 ft 180 kts 317°
2026-04-25 22:25 43.27944 -81.45630 25329 ft 404 kts 308°
2026-04-25 22:26 43.29743 -81.49046 22815 ft 345 kts 291°